FW9148 Weather Reports


time (UTC)temp
C
wind
direction
speed
KPH
gust
KPH
rain 1hr
cm
rain 24hr
cm
rain mn
cm
humidity
%
barometer
mb
20260507214559 15 290 0.0 6.4 0.00 0.36 0.00 38 1006.0
20260507213054 15 246 0.0 4.8 0.00 0.36 0.00 38 1006.0
20260507211557 15 43 1.6 4.8 0.00 0.36 0.00 40 1006.0
20260507210057 15 255 1.6 9.7 0.00 0.36 0.00 41 1006.1
20260507204557 16 323 1.6 6.4 0.00 0.53 0.00 39 1006.1
20260507203108 16 265 0.0 3.2 0.00 0.53 0.00 40 1005.9
20260507201605 17 280 1.6 4.8 0.00 0.53 0.00 37 1005.9
20260507200100 17 0 1.6 6.4 0.00 0.53 0.00 43 1006.0
20260507194556 17 291 1.6 4.8 0.00 0.56 0.00 37 1006.1
20260507193110 17 239 0.0 4.8 0.00 0.56 0.00 41 1006.1
20260507191554 17 252 1.6 9.7 0.00 0.56 0.00 40 1006.1
20260507190054 17 304 1.6 6.4 0.00 0.56 0.00 36 1006.3
20260507184551 17 288 1.6 4.8 0.00 0.74 0.00 40 1006.6
20260507183105 17 304 1.6 6.4 0.00 0.74 0.00 35 1006.8
20260507181552 17 285 1.6 4.8 0.00 0.74 0.00 41 1007.1
20260507180055 17 276 1.6 6.4 0.00 0.74 0.00 37 1007.0
20260507174604 16 289 4.8 12.9 0.00 0.81 0.00 38 1007.1
20260507173102 17 284 3.2 9.7 0.00 0.81 0.00 36 1006.8
20260507171611 17 279 1.6 8.0 0.00 0.81 0.00 35 1006.8
20260507170058 17 298 1.6 12.9 0.00 0.81 0.00 42 1007.1
20260507164611 17 281 3.2 6.4 0.00 0.81 0.00 38 1007.1
20260507163059 17 272 1.6 6.4 0.00 0.81 0.00 41 1007.2
20260507161612 16 253 1.6 8.0 0.00 0.81 0.00 43 1007.4
20260507154554 16 245 1.6 6.4 0.00 0.81 0.00 49 1007.7
20260507153055 16 287 1.6 8.0 0.00 0.81 0.00 56 1007.8
20260507151554 15 276 1.6 6.4 0.00 0.81 0.00 59 1008.0
20260507150104 15 256 0.0 3.2 0.00 0.81 0.00 60 1008.0
20260507144556 15 273 1.6 3.2 0.00 0.81 0.00 64 1008.1
20260507143103 14 271 0.0 3.2 0.00 0.81 0.00 64 1008.0
20260507141558 13 285 0.0 4.8 0.00 0.81 0.00 67 1008.1
20260507140054 13 289 0.0 6.4 0.00 0.81 0.00 65 1007.8
20260507134558 14 293 0.0 6.4 0.00 0.81 0.00 65 1007.9
20260507133058 15 0 0.0 4.8 0.00 0.81 0.00 66 1007.9
20260507131613 14 233 0.0 4.8 0.00 0.81 0.00 67 1008.0
20260507130057 14 314 0.0 6.4 0.00 0.81 0.00 70 1008.1
20260507124557 13 0 0.0 3.2 0.00 0.81 0.00 71 1008.2
20260507123056 13 127 0.0 1.6 0.00 0.81 0.00 76 1008.1
20260507121608 12 259 0.0 9.7 0.00 0.81 0.00 78 1008.3
20260507120059 11 0 0.0 3.2 0.00 0.81 0.00 82 1008.3
20260507114600 10 0 0.0 1.6 0.00 0.81 0.00 88 1008.3
20260507113057 8 0 0.0 1.6 0.00 0.81 0.00 92 1008.3
20260507111555 8 59 0.0 0.0 0.00 0.81 0.00 91 1008.1
20260507110106 8 0 0.0 1.6 0.00 0.81 0.00 93 1008.1
20260507104554 7 0 0.0 3.2 0.00 0.81 0.00 94 1007.9
20260507103058 7 0 0.0 0.0 0.00 0.81 0.00 94 1007.5
20260507101555 7 0 0.0 0.0 0.00 0.81 0.00 93 1007.5
20260507100054 7 0 0.0 8.0 0.00 0.81 0.00 94 1007.6
20260507094609 7 0 0.0 1.6 0.00 0.81 0.00 94 1007.5
20260507093058 7 0 0.0 1.6 0.00 0.81 0.00 95 1007.7
20260507091626 7 0 0.0 1.6 0.00 0.81 0.00 95 1007.9
20260507090105 7 0 0.0 1.6 0.00 0.81 0.00 95 1007.9
20260507084557 7 0 0.0 1.6 0.00 0.81 0.00 95 1007.7
20260507083057 7 0 0.0 0.0 0.00 0.81 0.00 94 1007.6
20260507081555 8 0 0.0 1.6 0.00 0.81 0.00 93 1007.4
20260507080058 8 0 0.0 3.2 0.00 0.81 0.00 92 1007.5
20260507074557 8 0 0.0 6.4 0.00 0.81 0.00 92 1007.3
20260507073100 8 0 0.0 1.6 0.00 0.81 0.00 94 1007.8
20260507071559 9 0 0.0 0.0 0.00 0.81 0.00 95 1007.2
20260507070108 9 162 0.0 3.2 0.00 0.81 0.00 95 1006.9
20260507064614 9 0 0.0 1.6 0.00 0.81 0.00 96 1007.0
20260507063058 9 0 0.0 0.0 0.00 0.81 0.00 96 1006.9
20260507061552 10 0 0.0 0.0 0.00 0.81 0.00 96 1006.7
20260507060105 10 0 0.0 0.0 0.00 0.81 0.00 96 1007.0
20260507054556 10 0 0.0 0.0 0.00 0.81 0.00 96 1007.0
20260507053054 10 0 0.0 1.6 0.00 0.81 0.00 96 1007.6
20260507051556 10 0 0.0 0.0 0.00 0.81 0.00 96 1007.5
20260507050054 11 0 0.0 0.0 0.00 0.81 0.00 96 1007.5
20260507044555 11 0 0.0 1.6 0.00 0.81 0.00 96 1007.3
20260507043053 11 274 0.0 1.6 0.05 0.81 0.00 96 1007.3
20260507041551 11 0 0.0 1.6 0.05 0.81 0.00 96 1007.3
20260507040052 11 0 0.0 0.0 0.05 0.81 0.00 96 1007.4
20260507034559 12 0 0.0 1.6 0.05 0.81 0.81 96 1007.3
20260507033057 12 0 0.0 1.6 0.00 0.76 0.76 96 1007.0
20260507031552 12 284 0.0 6.4 0.00 0.76 0.76 96 1006.8
20260507030054 13 0 0.0 1.6 0.03 0.76 0.76 97 1006.1
20260507024558 14 0 0.0 1.6 0.03 0.76 0.76 98 1006.2
20260507023051 14 0 0.0 1.6 0.03 0.76 0.76 98 1006.0
20260507021558 14 0 0.0 1.6 0.03 0.76 0.76 98 1006.1
20260507020054 14 0 0.0 0.0 0.00 0.74 0.74 98 1005.8
20260507014553 14 0 0.0 1.6 0.00 0.74 0.74 98 1006.0
20260507013052 14 0 0.0 1.6 0.00 0.74 0.74 98 1005.8
20260507011554 14 0 0.0 1.6 0.00 0.74 0.74 98 1005.9
20260507010109 14 0 0.0 1.6 0.00 0.74 0.74 98 1005.8
20260507004554 14 0 0.0 0.0 0.00 0.74 0.74 97 1005.9
20260507003052 14 0 0.0 1.6 0.00 0.74 0.74 97 1005.8
20260507001557 14 0 0.0 1.6 0.00 0.74 0.74 97 1005.6
20260507000056 14 0 0.0 3.2 0.00 0.74 0.74 97 1005.6
20260506234602 14 0 0.0 3.2 0.08 0.74 0.74 97 1005.6
20260506233103 14 0 0.0 1.6 0.13 0.74 0.74 97 1005.5
20260506231554 14 0 0.0 0.0 0.15 0.74 0.74 97 1005.3
20260506230054 14 0 0.0 8.0 0.15 0.74 0.74 97 1005.4
20260506224556 14 202 0.0 3.2 0.10 0.66 0.66 97 1005.6
20260506223058 15 0 0.0 3.2 0.10 0.61 0.61 96 1005.7
20260506221553 15 0 0.0 11.3 0.10 0.58 0.58 96 1005.8
20260506220053 15 122 0.0 4.8 0.13 0.58 0.58 96 1005.9